This is the latest recevied weather packets stored in our database for station/object W5DRO-13. If no packets are shown the sender has not sent any weather packets the latest 10 day(s).
| Time | Temp. | Humidity | Pressure | Rain* | Wind** | Luminosity | Snow |
|---|---|---|---|---|---|---|---|
| 1777912128 | 26.11° C | 47% | 1008 hPa | 0 mm | - | - | - |
| 1777911823 | 26.67° C | 46% | 1008.1 hPa | 0 mm | - | - | - |
| 1777911520 | 26.11° C | 48% | 1008.2 hPa | 0 mm | - | - | - |
| 1777911217 | 25.56° C | 45% | 1008.1 hPa | 0 mm | - | - | - |
| 1777910915 | 25.56° C | 48% | 1008.2 hPa | 0 mm | - | - | - |
| 1777910612 | 25.56° C | 48% | 1008.1 hPa | 0 mm | - | - | - |
| 1777910308 | 25° C | 48% | 1008.4 hPa | 0 mm | - | - | - |
| 1777910005 | 25° C | 47% | 1008.3 hPa | 0 mm | - | - | - |
| 1777909702 | 25° C | 48% | 1008.2 hPa | 0 mm | - | - | - |
| 1777909400 | 25° C | 47% | 1008.4 hPa | 0 mm | - | - | - |
| 1777909097 | 25° C | 47% | 1008.3 hPa | 0 mm | - | - | - |
| 1777908795 | 24.44° C | 49% | 1008.5 hPa | 0 mm | - | - | - |
| 1777908492 | 24.44° C | 49% | 1008.4 hPa | 0 mm | - | - | - |
| 1777908188 | 24.44° C | 49% | 1008.5 hPa | 0 mm | - | - | - |
| 1777907885 | 23.89° C | 49% | 1008.5 hPa | 0 mm | - | - | - |
| 1777907580 | 23.33° C | 49% | 1008.4 hPa | 0 mm | - | - | - |
| 1777907276 | 23.33° C | 50% | 1008.5 hPa | 0 mm | - | - | - |
| 1777906973 | 23.33° C | 49% | 1008.8 hPa | 0 mm | - | - | - |
| 1777906670 | 23.33° C | 49% | 1008.8 hPa | 0 mm | - | - | - |
| 1777906367 | 22.78° C | 51% | 1008.7 hPa | 0 mm | - | - | - |
| 1777906064 | 22.22° C | 51% | 1009 hPa | 0 mm | - | - | - |
| 1777905760 | 22.22° C | 50% | 1008.8 hPa | 0 mm | - | - | - |
| 1777905457 | 21.67° C | 52% | 1008.8 hPa | 0 mm | - | - | - |
| 1777905155 | 21.67° C | 52% | 1009 hPa | 0 mm | - | - | - |
| 1777904852 | 21.11° C | 53% | 1008.9 hPa | 0 mm | - | - | - |
* Rain latest hour (hover to see other rain measurements)
** Current wind speed in m/s (hover to see current wind gust speed)